Location: ???????
(38.3360°N, 23.6977°E)
Time: 05:29:03
(UTC+00:00)

Cosmos 468 Rocket - Pass Details

Date: 17 November 2025
Orbit: 740 x 774 km, 74.0° (Epoch: 09 December)

Event Time Altitude Azimuth Distance (km) Brightness Sun altitude
Rises 16:43:02 0° 343° (NNW) 3,225 7.3 -18.0°
Reaches altitude 10° 16:45:26 10° 344° (NNW) 2,290 6.5 -18.5°
Maximum altitude 16:50:37 78° 71° (ENE) 771 3.8 -19.5°
Drops below altitude 10° 16:55:44 10° 158° (SSE) 2,254 6.3 -20.5°
Sets 16:58:04 0° 160° (SSE) 3,170 7.1 -20.9°
